Location: North Fort Myers
(26.6673°N, 81.8801°W)
Time: 08:44:11
(UTC+00:00)

X-37B - Pass Details

Date: 19 August 2022
Orbit: 329 x 342 km, 45.0° (Epoch: 29 September)

Event Time Altitude Azimuth Distance (km) Brightness Sun altitude
Exits shadow 10:23:49 11° 225° (SW) 1,240 2.6 -8.9°
Drops below altitude 10° 10:24:24 10° 213° (SSW) 1,273 2.7 -8.7°
Sets 10:27:43 0° 171° (S) 2,108 4.2 -8.0°
